Погода Шангалы

Погода Шангалы : погода сейчас, прогноз погоды и архив. Всё, что Вы хотите узнать о погоде Шангалы!

Поиск расширенной информации на нашем сайте:

Другие новости

Новости СМИ2

Главная страница сайта

Новости сайта

03.07.2017

Напоминаем, что на нашем специализированном сайте Метеоцентр.Азия вы можете получить высокодетализированные автоматические прогнозы погоды по пунктам России, СНГ и мира в авиационном формате (включающие направление и скорость ветра, видимость, явления погоды, количество и форму облачности, нижнюю и верхнюю границу облачности).


Погода Шангалы - сегодня

Время (UTC), дата Ветер
(°,м/с) 
Видим.   Явления Облачность Т
(°С)
Тd
(°С)
f(%) Тe
(°С)
Pmin
(гПа)
dP
(гПа)
Po
(мм)
O2
(г/м3)
Тmin Tmax R s Состояние
почвы
18 12.12.17 140 (ЮВ) 20000 м    10/10 300 м 
[St]
-2.9 -3 99 -6  1017.6  -2.3  752  307           
21 12.12.17 150 (ЮВ) 5-10{10}  20000 м    10/10 300 м 
[St]
-2.3 -2.5 99 -6  1016  -1.5  751  305           
00 13.12.17 150 (ЮВ) 7-12{12}  20000 м    10/10 300 м 
[St]
-1.9 -2.2 98 -6  1012.8  -3.1  748  304           
03 13.12.17 150 (ЮВ) 6-13{13}  20000 м    10/10 300 м 
[St]
-1.5 -2.2 95 -5  1009.1  -3.7  746  302  -3.3      22  равномерный
сухой снег
100% 
06 13.12.17 130 (ЮВ) 4{13}  1100 м  метель{ливн. осадки}  10/10 300 м кучево-дожд. 
[Cb cap]
-1.6 -1.6 100 -4  1006.1  -2.9  743  301           
09 13.12.17 160 (Ю) 4{12}  26000 м  в посл. час ливневой снег  10/10 600 м кучево-дожд. 
[Cb cap]
-0.3 -0.8 96 -3  1004.2  -1.9  742  299           
12 13.12.17 180 (Ю) 4{11}  22000 м  {ливн. осадки}  10/10 300 м кучево-дожд. 
[Cb cap]
+0.5 +0.5 100 -2  1002.7  -1.5  741  298           
15 13.12.17 190 (Ю) 5{11}  20000 м    10/10 600 м 
[Sc]
+1.2 +1.2 100 -2  1002.3  -0.3  741  297    +1.2     
18 13.12.17 190 (Ю) 4{11}  20000 м    9/9 1000 м 
[Sc]
+1.6 +1.5 99 -1  1003.6  1.3  742  297           
21 13.12.17 270 (З) 6-10{11}  10 км  слаб. ливневой снег  10/10 300 м кучево-дожд. 
[Cb cap]
-0.4 -0.4 100 -4  1006.7  2.9  744  300           
00 14.12.17 220 (ЮЗ) 3{10}  20000 м  {ливн. осадки}  6/1 1000 м средняя, верхняя 
[Sc|Ac trans|Ci fib]
-1.5 -1.7 99 -3  1009.6  2.8  746  302           
03 14.12.17 220 (ЮЗ) 20000 м    1/0 средняя 
[Ac trans]
-3.5 -3.5 100 -6  1011.6  1.8  747  305  -3.5    0.6  18  равномерный
сухой снег
100% 
06 14.12.17 200 (Ю) 23000 м    9/0 средняя, верхняя 
[Ac trans|Ci]
-4.4 -4.4 100 -7  1013.2  1.6  749  307  -4.5         
09 14.12.17 190 (Ю) 25000 м    9/0 средняя, верхняя 
[Ac trans|Ci]
-3.9 -3.9 100 -6  1014.3  749  307           
12 14.12.17 200 (Ю) 19000 м    10/0 средняя 
[As op]
-4.7 -4.7 100 -7  1014.6  0.3  750  308           
15 14.12.17 130 (ЮВ) 20000 м    10/10 300 м 
[St]
-4.6 -4.6 100 -6  1013.5  -1  749  307    -3.4       
18 14.12.17 040 (СВ) 20000 м    9/9 600 м 
[Sc]
-5.2 -5.2 100 -5  1012.7  -0.9  748  308           
21 14.12.17 070 (В) 20000 м    10/10 300 м 
[Sc]
-4.9 -4.9 100 -4  1011.6  -0.9  747  307           
00 15.12.17 040 (СВ) 20000 м    10/10 300 м 
[Sc]
-3.8 -3.8 100 -3  1010.3  -1.2  746  305           
03 15.12.17 090 (В) 20000 м    10/10 300 м 
[St]
-3.6 -3.6 100 -3  1009.2  -1  746  305  -5.6      19  равномерный
сухой снег
100% 
06 15.12.17 060 (СВ) 10 км    10/10 100 м 
[St]
-2.6 -2.6 100 -2  1008.7  -0.4  745  303           
09 15.12.17 100 (В) 0900 м  снежные зёрна{туман}  10/10 200 м 
[St]
-1.2 -1.2 100 -1  1008.7  0.1  745  302           
12 15.12.17 150 (ЮВ) 3100 м  снег{туман}  10/10 300 м 
[Frnb|Ns]
+0.2 +0.2 100 -1  1008.8  0.1  745  300           
15 15.12.17 160 (Ю) 10 км  слаб. дождь{снег}  10/10 300 м 
[Frnb|Ns]
+0.9 +0.9 100 -1  1009.6  0.9  746  299    +0.9     
18 15.12.17 170 (Ю) 20000 м  {снег, дождь}  10/10 200 м 
[Frnb|Ns]
+1.5 +1.5 100 1011.3  1.7  747  299           
Время (UTC), дата Ветер
(°,м/с) 
Видим.   Явления Облачность Т
(°С)
Тd
(°С)
f(%) Тe
(°С)
Pmin
(гПа)
dP
(гПа)
Po
(мм)
O2
(г/м3)
Тmin Tmax R s Состояние
почвы

Для получения пояснительной информации подведите курсор к названию столбца.

ПОГОДА Шангалы - архив

Всё, что Вы хотите узнать о погоде Шангалы - удобно и подробно!

Выберите нужную дату (начиная с 1 января 2015* года) и нажмите кнопку "Найти".
Будут отображены архивные сводки погоды по пункту Шангалы, начиная с указанной даты.


Отображать данные в формате CSV (для использования в таблицах Excel)


Внимание! Наш архив погоды предназначен исключительно для личного некоммерческого использования в познавательных целях. Если Вам необходимы официальные справки о состоянии погоды (для производственных, юридических, коммерческих и т.п. целей), обращайтесь в органы Росгидромета.

*Примечание: данная дата относится к архиву по метеостанциям СССР (Россия, СНГ, Балтия).
Архив по метеостанциям Зарубежной Европы и Азии (кроме Китая) хранится 10 дней, по другим регионам земного шара (Китай, Африка, Америка, Австралия, Океания) - 1 день.

Шангалы - район местоположения метеостанции


Название, широта, долгота, высота метеостанции:
Шангалы 61.1°ш. 43.4°д. 122 м над ур. моря [Российская Федерация]

Дополнительная информация

В oтличие oт бoльшинства пoгoдных сайтoв мы публикуем пoдрoбную метеoинфoрмацию в детальнoм прoфессиoнальнoм фoрмате.

Характеристики температуры и влажнoсти вoздуха измеряются на высoте 2 м в тени вдали oт зданий и деревьев.
Скoрoсть ветра измеряется на высoте 10 м (на урoвне рoста челoвека скoрoсть ветра ниже в 1.5-2 раза). Если метеoстанция нахoдится в гoрoде или в лесу, тo скoрoсть ветра занижена на 2-4 м/с пo сравнению с oткрытым местoм. Скoрoсть ветра над акватoриями крупных рек и oзёр, а также на вершинах хoлмoв на 2-5 м/с выше, чем в oбычных услoвиях.
Атмoсфернoе давление в разных тoчках местнoсти мoжет значительнo oтличаться oт давления на метеoстанции, в зависимoсти oт услoвий рельефа (при пoдъёме на 10 м давление пoнижается примернo на 1 мм рт.ст.).